Weather Roundup
Issued by NWS Springfield, MO

Home | Current Version | Previous Version | Text Only | Print | Product List | Glossary On
Versions: 1 2 3 4 5 6 7 8 9 10 11 12 13 14 15 16 17 18 19 20 21 22 23 24 25 26 27 28 29 30 31 32 33 34 35 36 37 38 39 40 41 42 43 44 45 46 47 48 49 50
000
NZUS99 KSGF 260807
HRRSGF

HOURLY WEATHER
NATIONAL WEATHER SERVICE SPRINGFIELD MO
300 AM CDT WED APR 26 2017

......SGF CWA......

CITY           SKY/WX    TMP DP  RH WIND       PRES   REMARKS
SPRINGFIELD    TSTM      58  57  97 E8        29.55F
JOPLIN         CLOUDY    61  59  93 SW22G30   29.50R
WEST PLAINS    CLOUDY    66  56  70 S7        29.58R
ROLLA          MOCLDY    66  56  70 S14G22    29.46F
OSAGE BEACH    TSTM      59  58  96 W12       29.57R
BRANSON        LGT RAIN  57  57 100 CALM      29.57F

......SURROUNDING SGF CWA......

CITY           SKY/WX    TMP DP  RH WIND       PRES   REMARKS
CHANUTE        CLOUDY    50  47  89 NW14      29.52R
PARSONS        CLOUDY    52  50  93 NW13      29.53R
COFFEYVILLE    CLOUDY    53  50  89 N13       29.53R
EMPORIA        CLOUDY    45  44  97 NW15      29.57S
GROVE OK       CLOUDY    61  57  88 CALM      29.49R
SILOAM SPRINGS CLOUDY    57  54  88 E3        29.48F
HARRISON AR    RAIN      58  57  97 W7        29.58F
NEAR YELLVILLE CLOUDY   N/A N/A N/A W13G18    29.58R

......KANSAS AND MISSOURI......

CITY           SKY/WX    TMP DP  RH WIND       PRES   REMARKS
KANSAS CTY INT CLOUDY    46  45  96 N15G23    29.50F
DOWNTOWN KC    CLOUDY    49  46  90 N10G18    29.48S
COLUMBIA       TSTM      60  60 100 NW23G30   29.47R FOG
SEDALIA        LGT RAIN  63  62  97 SW8       29.51R
ST JOSEPH      LGT RAIN  45  44  97 MISG      29.53F
ST LOUIS       MOCLDY    70  52  52 S12       29.47F
SPIRIT OF STL  CLOUDY    69  54  58 S8        29.45F
KIRKSVILLE     CLOUDY    61  56  83 S7        29.44R
WICHITA        CLOUDY    45  40  82 N21G30    29.61R
TOPEKA         CLOUDY    46  44  93 NW15      29.56R
OLATHE         CLOUDY    47  47 100 N14       29.49R

......TENNESSEE......

CITY           SKY/WX    TMP DP  RH WIND       PRES   REMARKS
MEMPHIS        PTCLDY    67  57  70 S10       29.62R
NASHVILLE      CLEAR     62  55  77 CALM      29.69S

......ARKANSAS.......

CITY           SKY/WX    TMP DP  RH WIND       PRES   REMARKS
FAYETTEVILLE   LGT RAIN  58  58 100 E9        29.51F
FT SMITH       LGT RAIN  68  57  68 NW17G29   29.50R
LITTLE ROCK    CLOUDY    71  64  78 S10G20    29.55F

......OKLAHOMA.......

CITY           SKY/WX    TMP DP  RH WIND       PRES   REMARKS
TULSA          DRIZZLE   58  57  97 NW16      29.48R FOG
PONCA CITY     CLOUDY    50  43  77 N12G25    29.57R
MCALESTER      CLOUDY    67  66  97 CALM      29.46F
OKLAHOMA CITY  CLOUDY    53  50  89 N21       29.52R

......IOWA............

CITY           SKY/WX    TMP DP  RH WIND       PRES   REMARKS
DES MOINES     LGT RAIN  47  44  90 NW15      29.45F
QUAD CITIES    CLOUDY    67  52  58 SW6       29.40F

......ILLINOIS........

CITY           SKY/WX    TMP DP  RH WIND       PRES   REMARKS
QUINCY         CLOUDY    68  53  58 SW9       29.45S
CHICAGO        CLOUDY    67  54  63 S14       29.49F




USA.gov is the U.S. government's official web portal to all federal, state and local government web resources and services.